Regional Weather Roundup
Issued by NWS

Home | Current Version | Previous Version | Text Only | Print | Product List | Glossary On
Versions: 1 2 3 4 5 6 7 8 9 10 11 12 13 14 15 16 17 18 19 20 21 22 23 24 25 26 27 28 29 30 31 32 33 34 35 36 37 38 39 40 41 42 43 44 45 46 47 48 49 50
000
ASUS43 KOAX 050010
RWRNE

WEATHER ROUNDUP FOR NEBRASKA
NATIONAL WEATHER SERVICE OMAHA NE
600 PM CST WED MAR 04 2015

NOTES: SATELLITE DATA IS BEING USED TO AUGMENT CLOUD COVER ABOVE
       12000 FEET.
       "FAIR" INDICATES FEW OR NO CLOUDS BELOW 12,000 FEET WITH NO
       SIGNIFICANT WEATHER AND/OR OBSTRUCTIONS TO VISIBILITY.

  * THESE STATIONS DO NOT REPORT WEATHER SUCH AS RAIN...SNOW OR FOG.

NEZ001>004-019>022-054>056-050100-
NEBRASKA PANHANDLE

CITY           SKY/WX    TMP DP  RH WIND       PRES   REMARKS
SCOTTSBLUFF    CLEAR     25   1  35 NW15      30.17R WCI  13
6HR MIN TEMP:  23; 6HR MAX TEMP:  27;

ALLIANCE       CLEAR     21  -1  38 NW20      30.15R WCI   6
6HR MIN TEMP:  19; 6HR MAX TEMP:  24;

CHADRON        CLEAR     18   7  62 W12       30.20S WCI   5
6HR MIN TEMP:  15; 6HR MAX TEMP:  20;

KIMBALL        CLEAR     24   0  36 NW10      30.10R WCI  13
SIDNEY         CLEAR     25   1  35 NW17      30.14R WCI  12
6HR MIN TEMP:  20; 6HR MAX TEMP:  27;

$$

NEZ057>060-069>072-079>082-050100-
SOUTHWEST NEBRASKA

CITY           SKY/WX    TMP DP  RH WIND       PRES   REMARKS
NORTH PLATTE   PTCLDY    27  -2  28 NW23      30.21R WCI  12
6HR MIN TEMP:  26; 6HR MAX TEMP:  31;

IMPERIAL         N/A     26   5  40 NW10      30.20S WCI  16
6HR MIN TEMP:  23; 6HR MAX TEMP:  30;

LEXINGTON      CLEAR     29   2  32 N13       30.23R WCI  18
MCCOOK         CLEAR     31   1  28 NW15      30.24R WCI  20
6HR MIN TEMP:  26; 6HR MAX TEMP:  33;

OGALLALA       CLEAR     27  -1  29 NW16      30.19R WCI  15
$$

NEZ005>010-023>029-035>040-094-050100-
NORTH CENTRAL NEBRASKA

CITY           SKY/WX    TMP DP  RH WIND       PRES   REMARKS
VALENTINE      CLEAR     15   2  56 NW14      30.26  WCI   0
6HR MIN TEMP:  15; 6HR MAX TEMP:  20;

AINSWORTH      CLEAR     15   2  57 N14       30.26R WCI   0
BROKEN BOW     CLEAR     25  -3  29 N17       30.23R WCI  12
6HR MIN TEMP:  25; 6HR MAX TEMP:  29;

O`NEILL        CLEAR     16  -1  47 NW18      30.30S WCI  -1
ORD            CLEAR     23  -5  29 N16       30.26R WCI  10
6HR MIN TEMP:  23; 6HR MAX TEMP:  28;

THEDFORD       CLEAR     23   1  38 N6        30.21S WCI  15
$$

NEZ041-046>049-061>064-073>077-083>087-050100-
SOUTH CENTRAL NEBRASKA

CITY           SKY/WX    TMP DP  RH WIND       PRES   REMARKS
GRAND ISLAND   CLEAR     26   2  35 N13       30.29R WCI  15
6HR MIN TEMP:  25; 6HR MAX TEMP:  29;

AURORA         CLEAR     26   2  36 N9        30.29R WCI  16
HASTINGS       CLEAR     27   1  32 N7        30.27R WCI  19
6HR MIN TEMP:  24; 6HR MAX TEMP:  30;

HEBRON         PTCLDY    28   0  29 N6        30.31R WCI  22
HOLDREGE       CLEAR     28   7  40 N8        30.24R WCI  20
KEARNEY *      CLEAR     27   1  33 N10       30.26R WCI  17
YORK           CLEAR     25   1  36 N12       30.30R WCI  14
$$

NEZ011>018-030>034-042>045-050100-
NORTHEAST NEBRASKA

CITY           SKY/WX    TMP DP  RH WIND       PRES   REMARKS
NORFOLK        CLEAR     19  -3  38 NW22      30.30R WCI   2
6HR MIN TEMP:  19; 6HR MAX TEMP:  26;

ALBION         CLEAR     21  -5  31 N17       30.29R WCI   6
BLAIR          CLEAR     23  -3  31 N17       30.31R WCI   9
COLUMBUS *     CLEAR     21  -6  30 N17G23    30.32R WCI   7
FREMONT        CLEAR     24  -4  29 N10       30.33R WCI  13
TEKAMAH        CLEAR     21  -3  35 N20       30.35R WCI   6
6HR MIN TEMP:  21; 6HR MAX TEMP:  29;

WAYNE          CLEAR     16  -5  39 N18G25    30.33R WCI   0
$$

NEZ050>053-065>068-078-088>093-050100-
SOUTHEAST NEBRASKA

CITY           SKY/WX    TMP DP  RH WIND       PRES   REMARKS
LINCOLN        CLEAR     26  -3  28 N15       30.34R WCI  14
6HR MIN TEMP:  26; 6HR MAX TEMP:  32;

OMAHA EPPLEY   PTCLDY    23  -2  33 N16       30.34R WCI  10
6HR MIN TEMP:  23; 6HR MAX TEMP:  32;

BEATRICE       CLEAR     27   1  32 N12       30.32R WCI  16
FALLS CITY     PTCLDY    28   0  29 N12       30.30R WCI  18
6HR MIN TEMP:  27; 6HR MAX TEMP:  34; 6HR PCP: TRACE;

NEBRASKA CITY  CLEAR     26  -9  21 N12G20    30.31R WCI  15
PLATTSMOUTH    CLEAR     24  -6  26 N14       30.31R WCI  12
$$

NEZ044-045-051>053-067-050100-
OMAHA AREA

CITY           SKY/WX    TMP DP  RH WIND       PRES   REMARKS
OMAHA EPPLEY   PTCLDY    23  -2  33 N16       30.34R WCI  10
6HR MIN TEMP:  23; 6HR MAX TEMP:  32;

BLAIR          CLEAR     23  -3  31 N17       30.31R WCI   9
FREMONT        CLEAR     24  -4  29 N10       30.33R WCI  13
MILLARD        CLEAR     25  -3  29 N10G17    30.34R WCI  15
OFFUTT AFB     CLEAR     24  -3  30 N10G21    30.32R WCI  13
PLATTSMOUTH    CLEAR     24  -6  26 N14       30.31R WCI  12
WAHOO          FAIR      25  -5  27 N12G17    30.33R WCI  14
$$



USA.gov is the U.S. government's official web portal to all federal, state and local government web resources and services.